Dewpoint
-5 -5 -6 -5 -6 -6 -6 -6 -7 -5 -6 -8 -4 -3 -3 -9 -12 -12 -6 -4 -4 -5 -6 -7 -7 -9 -10 -12 -15 -15 -11 -11 -13 -13 -13 -13 -12 -11 -9 -3 -3 3 1 3 7
-4 -4 -5 -5 -5 -5 -5 -6 -6 -4 -8 -5 -4 -3 -4 -10 -7 -3 -4 -5 -6 -6 -6 -8 -11 -11 -11 -11 -11 -12 -11 -11 -12 -13 -12 -11 -13 -13 -8 -1 2 0 1 4 8
-2 -3 -3 -3 -4 -4 -5 -6 -4 -7 -6 -4 -5 -3 -3 -9 -6 -4 -4 -5 -6 -6 -6 -8 -9 -8 -8 -9 -10 -9 -9 -10 -10 -11 -12 -9 -9 -11 -8 -4 -1 -4 1 5 9
-1 -2 -2 -3 -3 -4 -6 -5 -5 -8 -5 -5 -5 -2 -4 -5 -5 -4 -4 -5 -7 -7 -6 -7 -7 -6 -5 -6 -8 -8 -9 -9 -9 -9 -9 -9 -9 -9 -10 -10 -9 -6 -3 1 6
-1 -2 -3 -4 -5 -5 -5 -4 -8 -7 -6 -7 -3 -4 -6 -4 -4 -4 -5 -5 -7 -7 -7 -7 -7 -6 -5 -5 -6 -7 -8 -8 -8 -9 -9 -9 -8 -9 -9 -9 -9 -6 2 2 2
-2 -4 -5 -5 -5 -4 -4 -6 -7 -7 -8 -3 -1 -3 -5 -4 -4 -4 -5 -5 -7 -5 -5 -5 -4 -6 -5 -5 -6 -6 -6 -6 -6 -7 -7 -7 -7 -8 -9 -9 -9 -7 -1 2 1
-3 -4 -4 -3 -3 -3 -3 -4 -6 -7 -4 -2 -3 -4 -4 -4 -4 -4 -5 -5 -7 -5 -4 -4 -4 -7 -6 -5 -5 -5 -5 -7 -7 -6 -6 -7 -8 -9 -9 -11 -9 -8 -0 1 1
-1 -2 -3 -4 -4 -3 -3 -5 -5 -4 -3 -2 -1 -3 -4 -4 -4 -4 -7 -7 -7 -5 -4 -4 -4 -6 -7 -5 -6 -6 -6 -5 -7 -6 -8 -10 -6 -9 -11 -7 -6 -9 -4 2 1
-1 -2 -3 -3 -3 -3 -3 -4 -4 -3 -4 -3 -3 -3 -4 -4 -6 -6 -8 -10 -5 -5 -5 -5 -5 -6 -7 -8 -6 -5 -5 -5 -6 -5 -3 -7 -6 -9 -9 -6 -5 -6 -8 1 4
-1 -1 -1 -2 -2 -2 -3 -4 -4 -3 -3 -3 -3 -4 -5 -5 -6 -6 -11 -6 -5 -6 -6 -6 -7 -7 -5 -6 -6 -4 -5 -4 -4 -5 -2 -2 -4 -4 -5 -5 -5 -8 -8 -4 -3
-1 -2 -2 -2 1 0 -4 -4 -3 -5 -5 -6 -5 -6 -6 -6 -6 -6 -13 -6 -7 -8 -6 -5 -4 -5 -5 -5 -5 -5 -4 -2 -3 -4 -1 -1 -1 -5 -7 -7 -7 -8 -7 -6 -5
-2 -2 -3 -2 0 -0 -2 -1 -0 -0 -4 -5 -6 -7 -6 -6 -6 -6 -7 -6 -6 -5 -7 -4 -4 -6 -5 -5 -5 -5 -3 -4 -3 -3 -1 -1 -1 -7 -6 -5 -5 -4 -4 -4 -5
-2 -3 -3 -2 -3 -1 -0 -2 -1 -0 -5 -5 -5 -5 -6 -5 -5 -5 -5 -4 -6 -6 -4 -3 -5 -5 -5 -4 -2 -3 -4 -3 -1 -1 -2 -1 -3 -3 -6 -5 -5 -4 -4 -5 -5
-3 -3 -3 -2 -4 -2 -2 -2 -3 1 -1 -3 -5 -6 -6 -7 -6 -3 -3 -5 -5 -6 -5 -4 -7 -5 -2 -3 -3 -0 -5 -2 -1 1 2 -2 1 -1 -3 -5 -4 -5 -5 -5 -4
-2 -2 -3 -4 -5 -4 -3 -4 -2 4 0 -4 -5 -5 -5 -7 -6 -2 -2 -4 -2 -2 -4 -5 -6 -3 -1 -3 -3 -1 -1 0 0 2 1 1 0 -2 -3 -4 -4 -4 -5 -4 -4
-3 -3 -3 -0 -2 -1 -4 -5 1 4 3 -2 -4 -4 -5 -4 -2 -2 -2 -3 -2 -1 -0 -1 -4 -4 -3 -3 -1 -1 1 -0 1 2 4 2 1 -0 -1 -2 -3 -3 -4 -4 -4
-4 -3 -3 1 -0 -0 -1 -3 4 4 -0 -2 -3 -4 -4 -3 -1 -1 0 1 2 -3 3 2 1 0 -2 0 -0 1 1 2 2 3 4 2 2 -1 -2 -3 -3 -3 -4 -3 -3
-3 -4 -3 -3 -2 -1 -3 3 2 2 -0 -2 -3 -2 -2 -3 -0 1 1 2 1 1 4 5 2 1 -0 0 1 1 2 3 3 5 5 2 3 1 -3 -3 -3 -3 -2 -1 -0
-1 -3 -3 0 -0 -2 4 3 2 1 -2 -1 -1 -0 1 1 -0 1 2 2 1 1 3 5 3 1 1 1 0 2 4 2 4 1 3 4 2 -0 -1 0 -1 -0 -0 -1 -1
-2 -3 -2 -3 -1 5 3 2 -2 -1 -1 -1 1 1 1 3 2 1 2 1 1 2 1 3 5 2 1 0 0 1 0 3 4 4 6 5 4 3 2 1 0 -0 -1 -0 -0
5 -2 4 4 4 -1 2 -1 -3 0 -0 1 2 3 3 3 2 3 3 1 0 1 1 1 3 1 0 2 3 3 3 3 3 4 5 5 5 1 1 0 1 -0 1 1 1
3 -0 4 4 1 1 0 -2 -0 1 0 1 1 1 2 3 3 3 3 2 1 2 2 2 2 3 1 -0 1 2 2 2 3 3 3 3 4 -1 -0 0 -0 1 2 2 1
1 3 3 3 2 0 0 1 1 0 1 0 1 2 2 3 3 3 3 2 2 2 2 1 2 2 -1 -0 -0 3 3 2 1 2 4 3 3 -1 -1 0 1 2 2 2 1
1 3 2 -1 0 0 1 1 2 1 1 2 2 1 2 3 3 3 4 2 2 2 2 1 2 1 2 -0 1 4 4 3 3 5 4 4 3 1 0 0 1 2 2 2 1
-0 3 3 2 3 2 2 1 2 1 0 1 2 2 2 3 3 5 3 3 2 2 3 2 4 3 2 2 3 4 4 4 4 4 5 3 3 2 1 -0 2 2 2 2 2
1 2 2 4 2 0 1 1 3 2 1 2 3 2 2 3 2 4 4 3 3 2 3 2 2 4 4 3 4 4 4 4 4 4 4 4 4 1 -1 3 2 1 2 3 3
2 1 1 3 -0 1 1 1 1 1 1 1 2 1 0 3 2 2 3 3 2 2 2 3 2 3 2 3 3 1 -0 3 2 2 1 2 -0 -1 2 2 2 2 3 3 3
Wind_Speed
12 12 12 10 8 7 7 8 8 9 7 9 8 5 4 6 9 12 16 12 13 13 11 4 1 2 10 7 6 4 5 2 3 4 2 2 2 3 3 5 3 2 6 7 21
10 10 9 8 7 8 8 8 10 9 11 10 6 7 3 8 16 17 15 17 13 13 12 5 8 10 8 5 4 6 5 4 4 4 1 3 1 3 2 3 2 3 6 16 23
7 7 7 7 8 8 9 11 12 12 13 9 7 7 1 8 9 13 14 15 14 14 15 11 14 14 8 8 5 3 4 3 2 1 2 1 1 2 9 2 9 11 14 20 22
5 6 7 8 9 10 12 14 13 14 12 7 7 7 2 3 4 12 11 12 15 12 15 15 14 11 5 5 5 6 4 3 2 3 3 3 2 2 8 6 8 9 13 18 19
5 7 8 9 12 14 15 14 14 13 9 6 6 3 6 9 8 13 11 8 11 11 15 14 14 7 4 3 4 4 2 3 2 6 4 2 4 4 11 8 8 11 17 20 17
8 11 13 15 16 16 15 13 13 12 8 6 6 5 7 8 11 14 5 6 7 13 15 17 12 7 7 4 4 2 1 1 1 4 2 2 3 3 3 5 11 13 19 21 18
15 17 17 17 17 16 14 14 13 10 8 7 7 7 11 7 10 11 9 7 7 10 13 12 13 7 4 3 5 4 5 6 8 5 1 2 5 6 9 6 9 16 20 21 18
17 17 17 17 16 15 15 15 12 10 8 7 9 9 7 8 8 7 10 2 3 8 8 8 8 7 6 2 6 6 6 5 6 3 4 3 8 13 5 4 12 15 20 23 21
15 17 17 17 17 16 14 13 11 10 5 6 7 6 4 6 10 12 16 8 5 8 7 6 6 7 7 4 5 8 1 2 7 6 5 1 8 13 9 18 21 12 20 22 21
16 17 17 16 14 11 11 13 12 7 4 6 8 6 9 8 9 11 10 7 5 6 4 7 6 5 5 6 1 2 2 2 3 5 7 4 8 9 17 13 13 9 10 19 15
15 16 15 14 12 11 13 14 7 7 13 10 6 6 7 5 9 14 8 6 7 9 5 7 8 3 3 1 0 0 1 2 3 1 5 4 6 9 13 9 7 3 8 10 11
14 15 13 11 11 12 10 8 8 5 7 10 10 8 8 9 8 21 11 5 7 3 2 6 4 1 5 5 4 3 2 4 5 3 0 6 7 6 10 8 10 14 16 16 15
12 12 12 10 10 9 9 13 8 4 5 6 7 7 6 7 9 14 14 5 6 6 5 5 1 5 4 6 6 4 2 2 5 6 1 5 4 6 4 11 13 11 11 12 11
11 11 9 8 6 13 12 8 5 3 5 8 6 5 7 3 5 17 10 5 6 3 2 4 4 5 6 4 2 4 2 2 4 2 2 4 2 5 6 3 7 5 7 8 7
11 10 9 6 8 9 8 4 3 1 5 5 5 3 8 7 2 19 11 7 4 4 5 2 3 6 7 2 1 6 4 2 1 2 3 8 4 6 5 3 1 4 7 6 6
11 11 8 6 8 7 5 2 2 7 1 3 2 4 5 12 6 9 17 9 7 6 7 2 2 3 2 3 2 6 3 5 4 2 3 3 3 5 3 3 2 2 4 5 4
10 11 9 7 5 5 3 1 5 6 3 2 3 4 5 6 6 7 7 9 4 4 6 6 4 5 4 5 6 9 6 3 5 5 4 3 1 6 5 3 3 5 3 2 5
8 9 9 7 4 5 4 5 6 3 1 1 3 5 5 4 5 7 3 5 5 5 3 4 5 5 6 1 2 3 4 4 2 1 4 5 3 2 4 8 7 5 4 4 6
9 9 8 8 7 6 2 5 6 5 1 2 3 5 4 3 4 5 4 2 3 4 3 3 3 5 2 2 1 2 4 2 5 2 3 3 4 5 4 9 15 13 10 11 10
11 11 9 8 7 4 5 3 1 4 1 2 3 0 2 5 3 4 2 1 1 5 0 1 2 1 4 2 7 6 4 4 4 2 3 5 6 3 7 10 8 6 9 11 11
3 5 5 6 6 3 4 4 3 4 3 3 2 3 3 2 3 2 1 2 2 3 7 2 2 5 2 4 1 4 3 4 3 3 3 2 6 4 4 2 5 5 10 13 14
2 4 3 5 4 3 2 1 3 3 7 5 5 3 3 3 3 2 2 3 5 3 3 2 4 3 4 1 1 2 3 3 4 4 2 3 6 2 5 5 6 2 9 14 18
4 4 6 4 3 2 0 4 5 4 5 3 3 4 5 3 4 3 4 3 6 3 2 1 2 3 8 5 4 3 2 4 5 3 6 2 5 6 6 5 2 7 12 18 25
3 2 5 7 7 6 4 2 3 7 6 8 4 5 5 5 6 2 2 3 6 4 5 2 2 5 5 6 4 5 4 4 5 3 3 10 16 18 14 7 13 15 19 25 30
3 2 2 0 5 6 4 2 3 3 4 6 5 5 4 3 3 3 3 5 5 4 3 4 2 4 5 8 7 11 11 7 8 8 6 15 9 11 9 7 10 17 25 26 29
3 4 5 5 4 5 5 1 3 3 3 2 6 2 4 4 4 2 2 2 5 2 2 3 3 0 4 3 4 8 12 10 9 7 11 14 15 12 9 5 15 27 28 25 27
4 7 4 3 3 4 2 4 4 7 5 4 12 4 3 5 6 4 7 6 2 2 2 0 3 2 5 3 8 8 6 5 3 5 6 6 11 2 3 11 22 25 25 26 15
Wind_Direction
253 246 243 243 236 228 213 203 186 178 152 139 129 71 50 91 81 72 49 27 10 12 26 52 343 21 93 91 80 89 63 102 156 131 244 343 110 70 76 126 104 131 151 144 169
247 241 235 228 217 209 193 180 176 162 134 144 108 40 82 113 87 59 42 35 35 34 41 91 117 99 75 84 55 80 88 179 189 174 140 37 84 123 122 114 122 143 149 158 174
240 225 216 205 194 188 172 167 162 136 151 137 69 33 65 121 85 35 40 42 40 38 46 93 93 87 73 64 30 93 144 189 90 94 154 290 304 162 139 220 186 191 170 173 180
208 193 182 175 173 167 157 160 139 149 145 107 55 42 108 132 96 27 49 48 43 44 61 80 86 79 65 66 40 77 90 134 158 196 155 206 254 255 209 223 198 197 183 181 188
166 154 149 151 152 148 150 139 144 143 131 77 57 90 123 95 43 40 61 46 42 56 60 61 59 75 74 69 77 72 135 171 175 182 210 204 256 267 261 246 219 208 189 190 195
126 123 131 136 138 139 132 137 136 136 113 86 69 83 110 82 45 29 41 51 56 62 61 57 40 72 76 73 79 33 130 311 280 204 226 228 281 334 301 244 236 217 200 199 199
122 125 127 129 128 127 132 131 133 121 105 79 70 76 83 54 36 23 29 26 33 32 51 39 28 61 84 111 10 37 41 11 19 328 328 295 321 238 245 313 257 225 210 204 210
115 119 120 117 119 128 128 127 124 116 101 66 56 78 74 49 36 7 13 27 70 41 41 35 45 71 44 67 36 37 47 35 324 38 27 77 275 281 271 305 301 242 222 213 213
114 111 109 111 113 114 117 120 122 121 82 42 58 53 58 40 34 27 5 37 76 33 48 51 68 58 31 61 29 9 88 345 323 53 12 53 273 278 311 307 290 273 232 218 217
114 113 110 104 101 104 117 116 115 96 44 29 47 94 44 23 8 359 5 44 45 84 69 53 56 62 28 49 193 304 354 309 255 322 359 321 274 296 318 287 298 293 232 211 211
118 115 110 105 87 99 114 115 109 80 61 65 55 79 46 25 32 19 40 65 52 54 48 24 64 55 353 16 222 139 226 291 263 274 350 314 293 319 358 50 34 62 126 146 137
121 119 114 99 90 104 114 100 97 100 63 47 56 70 43 35 34 27 44 79 58 66 32 34 70 336 109 54 67 37 17 312 295 283 206 351 322 323 12 32 58 99 112 115 110
130 127 125 112 87 116 118 107 86 92 88 34 25 35 29 31 32 14 27 42 60 45 30 113 37 55 86 34 32 332 205 249 246 327 39 337 354 357 10 64 77 88 107 112 104
150 148 147 137 120 127 120 95 64 75 76 316 355 22 14 14 55 25 29 38 38 84 79 63 28 72 53 50 56 317 144 274 266 57 239 24 242 341 337 40 53 98 135 138 136
171 165 164 159 140 129 127 90 54 45 67 282 331 16 35 77 315 10 26 63 58 30 75 293 37 48 46 313 311 247 341 280 261 140 87 351 70 290 354 14 67 191 177 173 174
182 178 170 144 143 135 131 91 42 44 32 343 1 12 48 35 40 26 40 70 67 64 34 18 359 51 300 307 355 293 32 43 47 73 45 322 99 294 318 276 299 233 201 202 193
178 181 177 157 144 153 151 135 45 97 282 9 39 54 70 19 41 33 22 34 46 43 6 340 356 325 20 9 352 24 40 358 6 11 216 287 45 235 303 0 245 207 205 234 289
147 166 179 189 194 167 159 56 76 251 303 344 54 62 82 10 30 17 50 27 13 51 77 44 339 2 342 24 285 7 93 131 188 298 278 314 218 247 10 24 64 53 22 352 6
121 130 147 157 159 161 156 57 183 208 255 86 58 72 15 17 107 81 56 58 358 4 91 50 295 323 344 326 60 329 45 156 105 10 35 277 308 308 71 19 347 353 44 54 51
118 102 98 130 145 145 76 159 115 205 109 69 104 13 113 352 67 74 43 299 325 25 157 334 329 277 293 16 33 94 136 34 12 54 306 304 297 248 19 335 354 62 41 24 11
137 101 69 117 137 97 121 206 138 41 133 62 115 90 78 78 57 65 89 315 13 6 62 47 70 293 7 37 13 1 26 53 107 114 183 282 268 201 181 316 126 69 21 14 4
94 70 57 133 58 44 90 77 115 9 69 70 86 87 86 57 62 88 115 45 15 6 43 360 135 293 253 170 290 97 122 104 110 299 215 165 267 178 111 135 129 349 350 342 333
95 99 51 134 115 356 98 63 69 44 32 66 70 56 50 71 89 49 64 28 31 61 96 177 357 2 345 21 9 88 201 109 98 78 215 183 264 206 278 148 207 310 320 334 331
116 51 50 71 91 118 111 62 97 53 64 69 90 80 71 45 20 103 51 0 357 27 75 103 118 158 198 239 231 258 195 192 141 221 225 238 270 281 289 289 294 311 320 327 331
67 85 101 267 14 96 88 98 103 84 74 54 42 58 118 80 34 46 12 342 1 40 52 85 208 195 248 261 276 277 275 250 202 229 225 268 249 264 265 259 269 300 317 312 320
103 135 93 82 98 86 13 58 126 112 85 57 118 106 94 129 153 217 181 191 245 358 79 21 260 322 277 307 297 273 261 243 263 252 238 257 266 260 279 272 316 316 312 300 318
110 126 123 8 60 78 231 161 161 124 43 139 148 106 79 179 187 227 245 252 271 175 169 357 126 67 276 8 324 315 265 185 209 226 213 250 276 250 293 320 317 309 314 318 321
Height
1498 1498 1500 1501 1502 1503 1503 1505 1507 1510 1511 1513 1515 1514 1513 1514 1514 1514 1512 1514 1513 1511 1509 1508 1507 1507 1508 1508 1509 1511 1529 1541 1534 1532 1530 1528 1529 1530 1530 1531 1533 1533 1533 1534 1537
1495 1496 1497 1498 1500 1501 1502 1504 1507 1510 1511 1514 1515 1512 1513 1515 1515 1515 1515 1513 1512 1511 1508 1508 1507 1507 1508 1512 1512 1512 1534 1530 1529 1529 1529 1527 1530 1532 1533 1531 1533 1532 1531 1533 1535
1493 1494 1495 1497 1498 1499 1501 1504 1508 1510 1514 1515 1514 1514 1513 1514 1515 1517 1515 1513 1514 1511 1509 1507 1508 1508 1510 1511 1514 1516 1529 1526 1524 1527 1528 1531 1531 1530 1532 1533 1530 1532 1530 1533 1535
1493 1493 1494 1496 1496 1499 1502 1507 1508 1512 1514 1514 1514 1514 1514 1516 1522 1517 1515 1514 1512 1514 1508 1511 1509 1510 1513 1517 1517 1523 1524 1526 1525 1529 1530 1530 1530 1529 1531 1529 1530 1530 1530 1531 1533
1492 1493 1494 1495 1498 1500 1504 1507 1510 1512 1514 1514 1515 1516 1516 1518 1518 1516 1514 1514 1515 1513 1511 1512 1512 1513 1517 1517 1518 1524 1524 1525 1527 1529 1529 1527 1531 1531 1528 1527 1527 1528 1530 1531 1533
1492 1492 1495 1497 1500 1503 1505 1508 1511 1514 1516 1517 1517 1516 1516 1516 1517 1515 1514 1515 1518 1517 1514 1515 1517 1517 1516 1518 1522 1524 1522 1523 1527 1526 1526 1527 1529 1529 1525 1523 1525 1526 1527 1530 1532
1494 1496 1498 1500 1502 1504 1508 1510 1513 1515 1517 1517 1516 1516 1516 1518 1516 1515 1517 1517 1517 1518 1516 1517 1516 1517 1517 1520 1525 1522 1523 1523 1528 1525 1526 1527 1529 1527 1523 1523 1523 1524 1526 1528 1530
1497 1499 1500 1502 1504 1507 1509 1512 1514 1516 1517 1517 1517 1516 1516 1518 1518 1518 1518 1518 1519 1518 1517 1517 1519 1518 1519 1519 1523 1530 1532 1539 1530 1527 1529 1530 1539 1521 1522 1522 1521 1522 1524 1526 1530
1501 1502 1503 1506 1508 1510 1512 1514 1515 1517 1518 1517 1517 1517 1520 1520 1520 1519 1518 1518 1518 1518 1518 1519 1520 1522 1522 1528 1538 1542 1548 1542 1539 1531 1532 1531 1534 1521 1521 1520 1517 1520 1521 1525 1529
1505 1506 1508 1510 1511 1513 1514 1515 1516 1518 1518 1517 1518 1521 1522 1523 1522 1521 1520 1520 1519 1519 1520 1521 1522 1528 1532 1538 1556 1547 1546 1544 1543 1535 1533 1534 1533 1522 1518 1517 1516 1517 1519 1524 1529
1508 1509 1511 1512 1513 1514 1515 1516 1520 1521 1519 1521 1523 1524 1524 1525 1524 1522 1519 1520 1520 1521 1527 1525 1535 1543 1537 1536 1536 1538 1542 1544 1539 1535 1536 1535 1534 1526 1518 1516 1516 1518 1521 1525 1529
1510 1511 1513 1514 1514 1515 1516 1517 1520 1524 1524 1524 1524 1525 1525 1524 1524 1522 1521 1522 1523 1530 1527 1534 1541 1536 1536 1537 1537 1538 1542 1546 1540 1536 1537 1535 1533 1526 1522 1522 1522 1522 1524 1526 1528
1512 1513 1514 1516 1516 1518 1518 1520 1521 1522 1524 1527 1527 1527 1527 1528 1527 1526 1525 1525 1526 1530 1533 1540 1539 1536 1537 1541 1542 1542 1541 1543 1545 1540 1536 1537 1536 1533 1527 1526 1526 1526 1527 1529 1530
1514 1515 1516 1517 1521 1519 1520 1522 1522 1523 1537 1535 1529 1530 1529 1528 1530 1529 1527 1529 1530 1535 1535 1539 1538 1539 1541 1542 1543 1547 1539 1540 1543 1545 1550 1541 1552 1537 1535 1530 1530 1530 1530 1531 1531
1515 1516 1518 1519 1519 1520 1523 1523 1523 1524 1570 1536 1531 1531 1530 1530 1533 1532 1530 1530 1535 1538 1539 1545 1541 1543 1545 1544 1542 1544 1538 1538 1538 1544 1545 1549 1555 1543 1536 1533 1532 1531 1531 1531 1531
1515 1517 1518 1520 1520 1522 1522 1523 1525 1546 1562 1538 1533 1532 1533 1533 1536 1537 1533 1533 1537 1539 1540 1545 1542 1543 1543 1541 1540 1538 1539 1541 1545 1549 1563 1553 1556 1552 1543 1538 1534 1532 1532 1532 1533
1515 1517 1519 1520 1522 1522 1523 1525 1544 1562 1539 1540 1537 1535 1538 1542 1542 1542 1545 1546 1553 1551 1561 1551 1548 1545 1543 1545 1541 1543 1550 1571 1570 1577 1572 1551 1556 1549 1537 1534 1532 1532 1532 1533 1534
1515 1517 1519 1520 1522 1523 1524 1529 1549 1545 1541 1537 1537 1539 1545 1544 1548 1549 1551 1558 1553 1555 1566 1566 1567 1550 1546 1547 1550 1549 1555 1579 1577 1590 1579 1556 1553 1545 1536 1535 1535 1535 1535 1533 1533
1516 1517 1519 1521 1522 1524 1526 1552 1554 1546 1539 1538 1539 1546 1548 1546 1548 1552 1558 1560 1558 1556 1562 1572 1562 1550 1548 1548 1549 1550 1564 1559 1578 1603 1592 1565 1549 1539 1538 1539 1537 1535 1534 1535 1534
1518 1519 1520 1522 1523 1525 1530 1545 1539 1538 1537 1538 1546 1547 1551 1552 1551 1554 1558 1558 1558 1557 1555 1560 1565 1553 1550 1549 1549 1551 1556 1569 1578 1593 1585 1567 1559 1552 1546 1542 1540 1539 1538 1537 1537
1519 1520 1522 1522 1524 1525 1544 1545 1537 1537 1537 1540 1545 1548 1551 1552 1553 1558 1560 1558 1557 1558 1557 1559 1563 1560 1553 1558 1559 1560 1566 1566 1570 1580 1591 1592 1568 1546 1546 1542 1542 1541 1540 1539 1539
1518 1521 1522 1523 1526 1532 1538 1536 1537 1538 1537 1540 1543 1547 1550 1553 1557 1557 1559 1559 1558 1558 1561 1563 1571 1576 1560 1556 1556 1558 1562 1567 1586 1582 1588 1594 1570 1542 1540 1540 1540 1540 1540 1539 1537
1519 1521 1522 1522 1537 1543 1537 1537 1538 1539 1541 1542 1547 1548 1550 1556 1561 1558 1559 1561 1559 1559 1562 1562 1574 1584 1567 1563 1561 1561 1562 1565 1575 1582 1579 1592 1563 1540 1539 1538 1539 1539 1537 1536 1532
1520 1525 1523 1523 1527 1532 1537 1540 1542 1542 1544 1545 1549 1549 1553 1559 1560 1562 1562 1561 1560 1560 1560 1561 1572 1575 1585 1571 1567 1566 1563 1564 1567 1574 1570 1564 1549 1538 1538 1537 1536 1534 1533 1530 1527
1520 1524 1526 1534 1533 1533 1535 1539 1543 1545 1545 1547 1551 1552 1555 1564 1564 1565 1564 1563 1561 1561 1561 1564 1571 1572 1570 1566 1564 1558 1558 1559 1565 1560 1563 1546 1549 1538 1535 1534 1533 1532 1530 1526 1523
1521 1523 1526 1531 1533 1534 1539 1541 1543 1545 1546 1549 1552 1555 1555 1561 1562 1564 1564 1564 1564 1563 1564 1566 1575 1570 1570 1566 1566 1562 1553 1553 1552 1552 1551 1546 1543 1531 1530 1532 1531 1528 1525 1522 1519
1522 1523 1526 1535 1536 1539 1542 1540 1542 1543 1549 1548 1551 1555 1559 1558 1558 1559 1560 1560 1561 1563 1566 1568 1576 1581 1578 1572 1571 1562 1544 1546 1543 1542 1540 1541 1530 1528 1529 1529 1527 1521 1519 1516 1514